| time (UTC) | temp C | wind direction | speed KPH | gust KPH | rain 1hr cm | rain 24hr cm | rain mn cm | humidity % | barometer mb |
| 20260904104127 | 14 | 0 | 6.4 | 12.9 | 0.00 | 0.00 | 0.00 | 96 | 1019.0 |
| 20260904103618 | 13 | 0 | 6.4 | 9.7 | 0.00 | 0.00 | 0.00 | 96 | 1019.1 |
| 20260904103109 | 13 | 0 | 8.0 | 0.0 | 0.00 | 0.00 | 0.00 | 96 | 1018.9 |
| 20260904102600 | 13 | 0 | 8.0 | 19.3 | 0.00 | 0.00 | 0.00 | 96 | 1019.1 |
| 20260904102051 | 13 | 0 | 8.0 | 12.9 | 0.00 | 0.00 | 0.00 | 96 | 1019.0 |
| 20260904101542 | 13 | 0 | 6.4 | 9.7 | 0.00 | 0.00 | 0.00 | 95 | 1019.0 |
| 20260904101033 | 13 | 0 | 4.8 | 8.0 | 0.00 | 0.00 | 0.00 | 95 | 1019.2 |
| 20260904100524 | 13 | 0 | 6.4 | 9.7 | 0.00 | 0.00 | 0.00 | 95 | 1019.3 |
| 20260904100015 | 13 | 0 | 4.8 | 6.4 | 0.00 | 0.00 | 0.00 | 95 | 1019.3 |
| 20260904095506 | 13 | 0 | 4.8 | 9.7 | 0.00 | 0.00 | 0.00 | 95 | 1019.1 |
| 20260904094957 | 13 | 0 | 6.4 | 9.7 | 0.00 | 0.00 | 0.00 | 95 | 1019.3 |
| 20260904094449 | 12 | 0 | 6.4 | 11.3 | 0.00 | 0.00 | 0.00 | 95 | 1019.2 |
| 20260904093940 | 12 | 0 | 4.8 | 11.3 | 0.00 | 0.00 | 0.00 | 95 | 1019.3 |
| 20260904093431 | 12 | 0 | 6.4 | 9.7 | 0.00 | 0.00 | 0.00 | 95 | 1019.5 |
| 20260904092922 | 12 | 0 | 6.4 | 9.7 | 0.00 | 0.00 | 0.00 | 95 | 1019.5 |
| 20260904092413 | 12 | 0 | 4.8 | 9.7 | 0.00 | 0.00 | 0.00 | 95 | 1019.7 |
| 20260904091904 | 12 | 0 | 6.4 | 12.9 | 0.00 | 0.00 | 0.00 | 95 | 1019.7 |
| 20260904091355 | 12 | 0 | 6.4 | 11.3 | 0.00 | 0.00 | 0.00 | 95 | 1019.6 |
| 20260904090846 | 12 | 0 | 6.4 | 11.3 | 0.00 | 0.00 | 0.00 | 95 | 1019.6 |
| 20260904090337 | 12 | 0 | 8.0 | 12.9 | 0.00 | 0.00 | 0.00 | 95 | 1019.7 |
| 20260904085829 | 12 | 0 | 8.0 | 14.5 | 0.00 | 0.00 | 0.00 | 94 | 1019.7 |
| 20260904085320 | 12 | 0 | 8.0 | 12.9 | 0.00 | 0.00 | 0.00 | 94 | 1019.8 |
| 20260904084811 | 12 | 0 | 6.4 | 11.3 | 0.00 | 0.00 | 0.00 | 94 | 1019.9 |
| 20260904084302 | 12 | 0 | 6.4 | 12.9 | 0.00 | 0.00 | 0.00 | 94 | 1020.0 |
| 20260904083753 | 12 | 0 | 4.8 | 8.0 | 0.00 | 0.00 | 0.00 | 94 | 1020.1 |
| 20260904082735 | 12 | 0 | 6.4 | 11.3 | 0.00 | 0.00 | 0.00 | 94 | 1020.1 |
| 20260904082227 | 12 | 0 | 6.4 | 8.0 | 0.00 | 0.00 | 0.00 | 94 | 1020.2 |
| 20260904081718 | 12 | 0 | 8.0 | 0.0 | 0.00 | 0.00 | 0.00 | 94 | 1020.1 |
| 20260904081209 | 12 | 0 | 6.4 | 16.1 | 0.00 | 0.00 | 0.00 | 94 | 1020.2 |
| 20260904080700 | 12 | 0 | 8.0 | 12.9 | 0.00 | 0.00 | 0.00 | 94 | 1020.4 |
| 20260904080151 | 12 | 0 | 6.4 | 11.3 | 0.00 | 0.00 | 0.00 | 94 | 1020.4 |
| 20260904075643 | 12 | 0 | 6.4 | 11.3 | 0.00 | 0.00 | 0.00 | 94 | 1020.3 |
| 20260904075133 | 12 | 0 | 4.8 | 9.7 | 0.00 | 0.00 | 0.00 | 94 | 1020.1 |
| 20260904074116 | 12 | 0 | 3.2 | 8.0 | 0.00 | 0.00 | 0.00 | 94 | 1020.2 |
| 20260904073607 | 12 | 0 | 4.8 | 11.3 | 0.00 | 0.00 | 0.00 | 94 | 1020.3 |
| 20260904073058 | 11 | 0 | 6.4 | 11.3 | 0.00 | 0.00 | 0.00 | 94 | 1020.4 |
| 20260904072549 | 11 | 0 | 4.8 | 8.0 | 0.00 | 0.00 | 0.00 | 93 | 1020.4 |
| 20260904072040 | 11 | 0 | 6.4 | 9.7 | 0.00 | 0.00 | 0.00 | 93 | 1020.4 |
| 20260904071532 | 11 | 0 | 6.4 | 12.9 | 0.00 | 0.00 | 0.00 | 93 | 1020.4 |
| 20260904071023 | 12 | 0 | 4.8 | 8.0 | 0.00 | 0.00 | 0.00 | 93 | 1020.5 |
| 20260904070005 | 12 | 0 | 3.2 | 6.4 | 0.00 | 0.00 | 0.00 | 93 | 1020.5 |
| 20260904065456 | 12 | 0 | 3.2 | 6.4 | 0.00 | 0.00 | 0.00 | 93 | 1020.6 |
| 20260904064947 | 12 | 0 | 6.4 | 9.7 | 0.00 | 0.00 | 0.00 | 93 | 1020.4 |
| 20260904064438 | 11 | 0 | 4.8 | 9.7 | 0.00 | 0.00 | 0.00 | 93 | 1020.3 |
| 20260904063930 | 11 | 0 | 3.2 | 6.4 | 0.00 | 0.00 | 0.00 | 93 | 1020.5 |
| 20260904063421 | 11 | 0 | 4.8 | 8.0 | 0.00 | 0.00 | 0.00 | 93 | 1020.5 |
| 20260904062912 | 11 | 0 | 4.8 | 6.4 | 0.00 | 0.00 | 0.00 | 93 | 1020.5 |
| 20260904062403 | 11 | 0 | 3.2 | 6.4 | 0.00 | 0.00 | 0.00 | 93 | 1020.4 |
| 20260904061854 | 11 | 0 | 4.8 | 6.4 | 0.00 | 0.00 | 0.00 | 93 | 1020.4 |
| 20260904061346 | 11 | 0 | 3.2 | 8.0 | 0.00 | 0.00 | 0.00 | 93 | 1020.6 |
| 20260904060837 | 11 | 0 | 3.2 | 8.0 | 0.00 | 0.00 | 0.00 | 93 | 1020.9 |
| 20260904055819 | 11 | 0 | 3.2 | 6.4 | 0.00 | 0.00 | 0.00 | 93 | 1020.6 |
| 20260904055310 | 11 | 0 | 4.8 | 8.0 | 0.00 | 0.00 | 0.00 | 93 | 1020.5 |
| 20260904054801 | 11 | 0 | 4.8 | 6.4 | 0.00 | 0.00 | 0.00 | 93 | 1020.4 |
| 20260904054330 | 11 | 0 | 4.8 | 9.7 | 0.00 | 0.00 | 0.00 | 93 | 1020.4 |
| 20260904054253 | 11 | 0 | 4.8 | 9.7 | 0.00 | 0.00 | 0.00 | 93 | 1020.4 |
| 20260904053744 | 11 | 0 | 4.8 | 6.4 | 0.00 | 0.00 | 0.00 | 93 | 1020.4 |
| 20260904052726 | 11 | 0 | 4.8 | 6.4 | 0.00 | 0.00 | 0.00 | 93 | 1020.4 |
| 20260904052217 | 11 | 0 | 4.8 | 8.0 | 0.00 | 0.00 | 0.00 | 93 | 1020.5 |
| 20260904051708 | 11 | 0 | 3.2 | 6.4 | 0.00 | 0.00 | 0.00 | 93 | 1020.7 |
| 20260904051200 | 11 | 0 | 4.8 | 6.4 | 0.00 | 0.00 | 0.00 | 93 | 1020.7 |
| 20260904050651 | 11 | 0 | 4.8 | 12.9 | 0.00 | 0.00 | 0.00 | 93 | 1020.6 |
| 20260904050142 | 11 | 0 | 4.8 | 6.4 | 0.00 | 0.00 | 0.00 | 93 | 1020.4 |
| 20260904045633 | 11 | 0 | 4.8 | 9.7 | 0.00 | 0.00 | 0.00 | 93 | 1020.2 |
| 20260904045124 | 11 | 0 | 6.4 | 12.9 | 0.00 | 0.00 | 0.00 | 93 | 1020.2 |
| 20260904044616 | 11 | 0 | 4.8 | 8.0 | 0.00 | 0.00 | 0.00 | 93 | 1020.4 |
| 20260904044107 | 11 | 0 | 4.8 | 8.0 | 0.00 | 0.00 | 0.00 | 93 | 1020.3 |
| 20260904043558 | 11 | 0 | 4.8 | 9.7 | 0.00 | 0.00 | 0.00 | 93 | 1020.2 |
| 20260904043049 | 11 | 0 | 6.4 | 11.3 | 0.00 | 0.00 | 0.00 | 93 | 1020.2 |
| 20260904042540 | 11 | 0 | 4.8 | 12.9 | 0.00 | 0.00 | 0.00 | 93 | 1020.3 |
| 20260904042032 | 11 | 0 | 6.4 | 12.9 | 0.00 | 0.00 | 0.00 | 93 | 1020.2 |
| 20260904041523 | 11 | 0 | 6.4 | 12.9 | 0.00 | 0.00 | 0.00 | 93 | 1020.3 |
| 20260904041014 | 11 | 0 | 4.8 | 9.7 | 0.00 | 0.00 | 0.00 | 93 | 1020.2 |
| 20260904040505 | 11 | 0 | 6.4 | 9.7 | 0.00 | 0.00 | 0.00 | 93 | 1020.3 |
| 20260904035957 | 11 | 0 | 6.4 | 9.7 | 0.00 | 0.00 | 0.00 | 93 | 1020.5 |
| 20260904035447 | 11 | 0 | 4.8 | 8.0 | 0.00 | 0.00 | 0.00 | 93 | 1020.5 |
| 20260904034939 | 11 | 0 | 6.4 | 11.3 | 0.00 | 0.00 | 0.00 | 93 | 1020.4 |
| 20260904034430 | 11 | 0 | 6.4 | 9.7 | 0.00 | 0.00 | 0.00 | 93 | 1020.4 |
| 20260904033921 | 11 | 0 | 6.4 | 9.7 | 0.00 | 0.00 | 0.00 | 93 | 1020.5 |
| 20260904033412 | 11 | 0 | 6.4 | 11.3 | 0.00 | 0.00 | 0.00 | 93 | 1020.5 |
| 20260904032903 | 11 | 0 | 6.4 | 8.0 | 0.00 | 0.00 | 0.00 | 92 | 1020.5 |
| 20260904032354 | 11 | 0 | 4.8 | 8.0 | 0.00 | 0.00 | 0.00 | 92 | 1020.5 |
| 20260904031846 | 11 | 0 | 4.8 | 9.7 | 0.00 | 0.00 | 0.00 | 92 | 1020.4 |
| 20260904031337 | 11 | 0 | 4.8 | 8.0 | 0.00 | 0.00 | 0.00 | 92 | 1020.5 |
| 20260904030828 | 11 | 0 | 4.8 | 9.7 | 0.00 | 0.00 | 0.00 | 92 | 1020.5 |
| 20260904030319 | 11 | 0 | 4.8 | 9.7 | 0.00 | 0.00 | 0.00 | 92 | 1020.5 |
| 20260904025305 | 11 | 0 | 6.4 | 9.7 | 0.00 | 0.00 | 0.00 | 92 | 1020.5 |
| 20260904024753 | 11 | 0 | 6.4 | 11.3 | 0.00 | 0.00 | 0.00 | 92 | 1020.7 |
| 20260904024244 | 11 | 0 | 4.8 | 8.0 | 0.00 | 0.00 | 0.00 | 92 | 1020.7 |
| 20260904023735 | 11 | 0 | 4.8 | 8.0 | 0.00 | 0.00 | 0.00 | 92 | 1020.8 |
| 20260904023226 | 11 | 0 | 4.8 | 8.0 | 0.00 | 0.00 | 0.00 | 92 | 1020.7 |
| 20260904022718 | 11 | 0 | 4.8 | 11.3 | 0.00 | 0.00 | 0.00 | 92 | 1020.8 |
| 20260904022209 | 11 | 0 | 4.8 | 11.3 | 0.00 | 0.00 | 0.00 | 92 | 1020.9 |
| 20260904021700 | 11 | 0 | 6.4 | 9.7 | 0.00 | 0.00 | 0.00 | 92 | 1020.8 |
| 20260904021151 | 11 | 0 | 6.4 | 9.7 | 0.00 | 0.00 | 0.00 | 92 | 1020.9 |
| 20260904020642 | 11 | 0 | 4.8 | 8.0 | 0.00 | 0.00 | 0.00 | 92 | 1020.8 |
| 20260904015625 | 11 | 0 | 6.4 | 9.7 | 0.00 | 0.00 | 0.00 | 92 | 1020.8 |
| 20260904015116 | 11 | 0 | 4.8 | 6.4 | 0.00 | 0.00 | 0.00 | 92 | 1020.8 |
| 20260904014607 | 11 | 0 | 4.8 | 9.7 | 0.00 | 0.00 | 0.00 | 92 | 1020.8 |
| 20260904014058 | 11 | 0 | 4.8 | 8.0 | 0.00 | 0.00 | 0.00 | 92 | 1020.7 |
| 20260904013549 | 11 | 0 | 4.8 | 9.7 | 0.00 | 0.00 | 0.00 | 92 | 1020.6 |
| 20260904013041 | 11 | 0 | 6.4 | 9.7 | 0.00 | 0.00 | 0.00 | 92 | 1020.5 |
| 20260904012532 | 11 | 0 | 6.4 | 9.7 | 0.00 | 0.00 | 0.00 | 92 | 1020.6 |
| 20260904012023 | 11 | 0 | 4.8 | 8.0 | 0.00 | 0.00 | 0.00 | 92 | 1020.7 |
| 20260904011514 | 11 | 0 | 4.8 | 8.0 | 0.00 | 0.00 | 0.00 | 92 | 1020.7 |
| 20260904011005 | 11 | 0 | 4.8 | 8.0 | 0.00 | 0.00 | 0.00 | 92 | 1020.8 |
| 20260904005948 | 11 | 0 | 4.8 | 8.0 | 0.00 | 0.00 | 0.00 | 92 | 1020.7 |
| 20260904005439 | 11 | 0 | 4.8 | 9.7 | 0.00 | 0.00 | 0.00 | 92 | 1020.7 |
| 20260904004930 | 11 | 0 | 6.4 | 9.7 | 0.00 | 0.00 | 0.00 | 92 | 1020.7 |
| 20260904003913 | 11 | 0 | 6.4 | 9.7 | 0.00 | 0.00 | 0.00 | 91 | 1020.8 |
| 20260904003404 | 11 | 0 | 6.4 | 11.3 | 0.00 | 0.00 | 0.00 | 91 | 1020.8 |
| 20260904001837 | 11 | 0 | 4.8 | 8.0 | 0.00 | 0.00 | 0.00 | 91 | 1021.1 |
| 20260904001329 | 11 | 0 | 4.8 | 11.3 | 0.00 | 0.00 | 0.00 | 91 | 1021.1 |
| 20260904000820 | 11 | 0 | 6.4 | 9.7 | 0.00 | 0.00 | 0.00 | 91 | 1021.1 |
| 20260904000311 | 11 | 0 | 4.8 | 9.7 | 0.00 | 0.00 | 0.00 | 91 | 1021.0 |
| 20260903235802 | 11 | 0 | 4.8 | 8.0 | 0.00 | 0.00 | 0.00 | 91 | 1021.1 |
| 20260903235253 | 11 | 0 | 4.8 | 9.7 | 0.00 | 0.00 | 0.00 | 91 | 1021.1 |
| 20260903234744 | 11 | 0 | 6.4 | 12.9 | 0.00 | 0.00 | 0.00 | 91 | 1021.0 |
| 20260903234236 | 11 | 0 | 4.8 | 12.9 | 0.00 | 0.00 | 0.00 | 91 | 1021.1 |
| 20260903233727 | 11 | 0 | 4.8 | 9.7 | 0.00 | 0.00 | 0.00 | 91 | 1020.9 |
| 20260903233218 | 11 | 0 | 4.8 | 11.3 | 0.00 | 0.00 | 0.00 | 91 | 1020.9 |
| 20260903232709 | 11 | 0 | 4.8 | 9.7 | 0.00 | 0.00 | 0.00 | 91 | 1020.9 |
| 20260903231652 | 11 | 0 | 6.4 | 11.3 | 0.00 | 0.00 | 0.00 | 91 | 1020.9 |
| 20260903231143 | 11 | 0 | 4.8 | 9.7 | 0.00 | 0.00 | 0.00 | 90 | 1020.9 |
| 20260903230634 | 11 | 0 | 4.8 | 9.7 | 0.00 | 0.00 | 0.00 | 90 | 1020.9 |
| 20260903230125 | 11 | 0 | 4.8 | 8.0 | 0.00 | 0.00 | 0.00 | 90 | 1021.0 |
| 20260903225616 | 11 | 0 | 6.4 | 9.7 | 0.00 | 0.00 | 0.00 | 90 | 1021.2 |
| 20260903225108 | 11 | 0 | 4.8 | 11.3 | 0.00 | 0.00 | 0.00 | 90 | 1021.2 |
| 20260903224559 | 11 | 0 | 6.4 | 9.7 | 0.00 | 0.00 | 0.00 | 90 | 1021.2 |
| 20260903224050 | 11 | 0 | 4.8 | 11.3 | 0.00 | 0.00 | 0.00 | 90 | 1021.3 |
| 20260903223541 | 11 | 0 | 6.4 | 11.3 | 0.00 | 0.00 | 0.00 | 90 | 1021.1 |
| 20260903223032 | 11 | 0 | 6.4 | 9.7 | 0.00 | 0.00 | 0.00 | 90 | 1021.0 |
| 20260903222523 | 11 | 0 | 6.4 | 12.9 | 0.00 | 0.00 | 0.00 | 90 | 1021.0 |
| 20260903222015 | 11 | 0 | 6.4 | 11.3 | 0.00 | 0.00 | 0.00 | 89 | 1021.1 |
| 20260903221506 | 11 | 0 | 6.4 | 14.5 | 0.00 | 0.00 | 0.00 | 89 | 1021.0 |
| 20260903220957 | 11 | 0 | 6.4 | 9.7 | 0.00 | 0.00 | 0.00 | 89 | 1021.0 |
| 20260903220448 | 11 | 0 | 6.4 | 9.7 | 0.00 | 0.00 | 0.00 | 89 | 1021.0 |
| 20260903215431 | 11 | 0 | 8.0 | 12.9 | 0.00 | 0.00 | 0.00 | 89 | 1021.0 |
| 20260903214922 | 11 | 0 | 6.4 | 9.7 | 0.00 | 0.00 | 0.00 | 89 | 1021.2 |
| 20260903214413 | 11 | 0 | 6.4 | 11.3 | 0.00 | 0.00 | 0.00 | 89 | 1021.0 |
| 20260903213904 | 11 | 0 | 6.4 | 12.9 | 0.00 | 0.00 | 0.00 | 89 | 1021.2 |
| 20260903213355 | 11 | 0 | 6.4 | 11.3 | 0.00 | 0.00 | 0.00 | 88 | 1021.1 |
| 20260903212846 | 11 | 0 | 6.4 | 9.7 | 0.00 | 0.00 | 0.00 | 88 | 1021.1 |
| 20260903211829 | 11 | 0 | 4.8 | 8.0 | 0.00 | 0.00 | 0.00 | 88 | 1021.2 |
| 20260903211320 | 11 | 0 | 4.8 | 8.0 | 0.00 | 0.00 | 0.00 | 88 | 1021.3 |
| 20260903210811 | 11 | 0 | 6.4 | 9.7 | 0.00 | 0.00 | 0.00 | 88 | 1021.4 |
| 20260903210302 | 11 | 0 | 6.4 | 9.7 | 0.00 | 0.00 | 0.00 | 87 | 1021.5 |
| 20260903205754 | 11 | 0 | 6.4 | 12.9 | 0.00 | 0.00 | 0.00 | 87 | 1021.4 |
| 20260903205245 | 11 | 0 | 6.4 | 11.3 | 0.00 | 0.00 | 0.00 | 87 | 1021.7 |
| 20260903204736 | 11 | 0 | 6.4 | 9.7 | 0.00 | 0.00 | 0.00 | 87 | 1021.6 |
| 20260903204227 | 11 | 0 | 6.4 | 9.7 | 0.00 | 0.00 | 0.00 | 87 | 1021.4 |
| 20260903203718 | 11 | 0 | 6.4 | 14.5 | 0.00 | 0.00 | 0.00 | 87 | 1021.5 |
| 20260903202701 | 11 | 0 | 8.0 | 12.9 | 0.00 | 0.00 | 0.00 | 86 | 1021.5 |
| 20260903202152 | 11 | 0 | 6.4 | 11.3 | 0.00 | 0.00 | 0.00 | 86 | 1021.6 |
| 20260903201643 | 11 | 0 | 8.0 | 0.0 | 0.00 | 0.00 | 0.00 | 86 | 1021.6 |
| 20260903201134 | 12 | 0 | 6.4 | 9.7 | 0.00 | 0.00 | 0.00 | 86 | 1021.5 |
| 20260903200625 | 12 | 0 | 6.4 | 9.7 | 0.00 | 0.00 | 0.00 | 85 | 1021.6 |
| 20260903200116 | 12 | 0 | 6.4 | 11.3 | 0.00 | 0.00 | 0.00 | 85 | 1021.6 |
| 20260903195608 | 12 | 0 | 6.4 | 12.9 | 0.00 | 0.00 | 0.00 | 85 | 1021.6 |
| 20260903194550 | 12 | 0 | 6.4 | 19.3 | 0.00 | 0.00 | 0.00 | 84 | 1021.6 |
| 20260903194041 | 12 | 0 | 6.4 | 9.7 | 0.00 | 0.00 | 0.00 | 84 | 1021.6 |
| 20260903193532 | 12 | 0 | 6.4 | 11.3 | 0.00 | 0.00 | 0.00 | 84 | 1021.6 |
| 20260903193023 | 12 | 0 | 9.7 | 0.0 | 0.00 | 0.00 | 0.00 | 84 | 1021.5 |
| 20260903192006 | 12 | 0 | 8.0 | 12.9 | 0.00 | 0.00 | 0.00 | 84 | 1021.5 |
| 20260903191457 | 12 | 0 | 6.4 | 12.9 | 0.00 | 0.00 | 0.00 | 84 | 1021.5 |
| 20260903190948 | 12 | 0 | 6.4 | 9.7 | 0.00 | 0.00 | 0.00 | 83 | 1021.6 |
| 20260903190439 | 12 | 0 | 8.0 | 11.3 | 0.00 | 0.00 | 0.00 | 83 | 1021.6 |
| 20260903185930 | 12 | 0 | 6.4 | 12.9 | 0.00 | 0.00 | 0.00 | 83 | 1021.6 |
| 20260903185421 | 12 | 0 | 6.4 | 11.3 | 0.00 | 0.00 | 0.00 | 83 | 1021.6 |
| 20260903184912 | 12 | 0 | 6.4 | 11.3 | 0.00 | 0.00 | 0.00 | 83 | 1021.5 |
| 20260903184403 | 12 | 0 | 4.8 | 8.0 | 0.00 | 0.00 | 0.00 | 83 | 1021.5 |
| 20260903183855 | 12 | 0 | 6.4 | 11.3 | 0.00 | 0.00 | 0.00 | 83 | 1021.7 |
| 20260903183346 | 12 | 0 | 4.8 | 8.0 | 0.00 | 0.00 | 0.00 | 84 | 1021.6 |
| 20260903182837 | 12 | 0 | 4.8 | 9.7 | 0.00 | 0.00 | 0.00 | 84 | 1021.6 |
| 20260903182328 | 12 | 0 | 4.8 | 9.7 | 0.00 | 0.00 | 0.00 | 84 | 1021.7 |
| 20260903181310 | 12 | 0 | 3.2 | 8.0 | 0.00 | 0.00 | 0.00 | 84 | 1021.7 |
| 20260903180802 | 12 | 0 | 4.8 | 8.0 | 0.00 | 0.00 | 0.00 | 84 | 1021.6 |
| 20260903180253 | 12 | 0 | 4.8 | 9.7 | 0.00 | 0.00 | 0.00 | 84 | 1021.6 |
| 20260903175744 | 12 | 0 | 3.2 | 8.0 | 0.00 | 0.00 | 0.00 | 84 | 1021.6 |
| 20260903175235 | 12 | 0 | 3.2 | 6.4 | 0.00 | 0.00 | 0.00 | 84 | 1021.7 |
| 20260903174726 | 12 | 0 | 4.8 | 8.0 | 0.00 | 0.00 | 0.00 | 84 | 1021.7 |
| 20260903174217 | 12 | 0 | 4.8 | 9.7 | 0.00 | 0.00 | 0.00 | 84 | 1021.6 |
| 20260903173708 | 12 | 0 | 6.4 | 11.3 | 0.00 | 0.00 | 0.00 | 84 | 1021.6 |
| 20260903173200 | 12 | 0 | 4.8 | 9.7 | 0.00 | 0.00 | 0.00 | 84 | 1021.6 |
| 20260903172651 | 12 | 0 | 4.8 | 8.0 | 0.00 | 0.00 | 0.00 | 84 | 1021.6 |
| 20260903172142 | 12 | 0 | 4.8 | 8.0 | 0.00 | 0.00 | 0.00 | 84 | 1021.6 |
| 20260903171633 | 12 | 0 | 4.8 | 9.7 | 0.00 | 0.00 | 0.00 | 83 | 1021.5 |
| 20260903170615 | 12 | 0 | 6.4 | 8.0 | 0.00 | 0.00 | 0.00 | 83 | 1021.5 |
| 20260903170106 | 12 | 0 | 4.8 | 11.3 | 0.00 | 0.00 | 0.00 | 84 | 1021.6 |
| 20260903165557 | 12 | 0 | 4.8 | 9.7 | 0.00 | 0.00 | 0.00 | 84 | 1021.7 |
| 20260903165049 | 12 | 0 | 4.8 | 8.0 | 0.00 | 0.00 | 0.00 | 84 | 1021.7 |
| 20260903164540 | 12 | 0 | 6.4 | 11.3 | 0.00 | 0.00 | 0.00 | 84 | 1021.7 |
| 20260903164031 | 12 | 0 | 6.4 | 8.0 | 0.00 | 0.00 | 0.00 | 84 | 1021.7 |
| 20260903163522 | 12 | 0 | 4.8 | 8.0 | 0.00 | 0.00 | 0.00 | 84 | 1021.7 |
| 20260903163013 | 12 | 0 | 4.8 | 8.0 | 0.00 | 0.00 | 0.00 | 84 | 1021.7 |
| 20260903162504 | 12 | 0 | 4.8 | 8.0 | 0.00 | 0.00 | 0.00 | 83 | 1021.7 |
| 20260903161955 | 12 | 0 | 4.8 | 6.4 | 0.00 | 0.00 | 0.00 | 83 | 1021.8 |
| 20260903161446 | 12 | 0 | 4.8 | 8.0 | 0.00 | 0.00 | 0.00 | 83 | 1021.8 |
| 20260903160938 | 12 | 0 | 4.8 | 6.4 | 0.00 | 0.00 | 0.00 | 83 | 1021.9 |
| 20260903160429 | 12 | 0 | 4.8 | 6.4 | 0.00 | 0.00 | 0.00 | 83 | 1021.9 |
| 20260903155920 | 13 | 0 | 4.8 | 6.4 | 0.00 | 0.00 | 0.00 | 83 | 1021.8 |
| 20260903154902 | 13 | 0 | 4.8 | 9.7 | 0.00 | 0.00 | 0.00 | 83 | 1022.0 |
| 20260903154353 | 13 | 0 | 4.8 | 8.0 | 0.00 | 0.00 | 0.00 | 83 | 1022.0 |
| 20260903153844 | 13 | 0 | 6.4 | 12.9 | 0.00 | 0.00 | 0.00 | 82 | 1022.1 |
| 20260903152826 | 13 | 0 | 6.4 | 9.7 | 0.00 | 0.00 | 0.00 | 82 | 1022.1 |
| 20260903152317 | 13 | 0 | 4.8 | 12.9 | 0.00 | 0.00 | 0.00 | 82 | 1022.1 |
| 20260903151808 | 13 | 0 | 4.8 | 8.0 | 0.00 | 0.00 | 0.00 | 82 | 1022.2 |
| 20260903151259 | 14 | 0 | 4.8 | 9.7 | 0.00 | 0.00 | 0.00 | 82 | 1022.3 |
| 20260903150750 | 14 | 0 | 4.8 | 8.0 | 0.00 | 0.00 | 0.00 | 82 | 1022.3 |
| 20260903145732 | 14 | 0 | 4.8 | 9.7 | 0.00 | 0.00 | 0.00 | 82 | 1022.5 |
| 20260903145223 | 14 | 0 | 6.4 | 11.3 | 0.00 | 0.00 | 0.00 | 82 | 1022.3 |
| 20260903144714 | 14 | 0 | 4.8 | 8.0 | 0.00 | 0.00 | 0.00 | 82 | 1022.3 |
| 20260903144205 | 14 | 0 | 4.8 | 6.4 | 0.00 | 0.00 | 0.00 | 83 | 1022.2 |
| 20260903143657 | 14 | 0 | 4.8 | 6.4 | 0.00 | 0.00 | 0.00 | 83 | 1022.3 |
| 20260903143148 | 14 | 0 | 4.8 | 8.0 | 0.00 | 0.00 | 0.00 | 83 | 1022.3 |
| 20260903142639 | 14 | 0 | 4.8 | 8.0 | 0.00 | 0.00 | 0.00 | 83 | 1022.3 |
| 20260903142130 | 14 | 0 | 4.8 | 8.0 | 0.00 | 0.00 | 0.00 | 83 | 1022.5 |
| 20260903141621 | 14 | 0 | 4.8 | 6.4 | 0.00 | 0.00 | 0.00 | 83 | 1022.6 |
| 20260903141112 | 14 | 0 | 4.8 | 9.7 | 0.00 | 0.00 | 0.00 | 83 | 1022.7 |
| 20260903140603 | 14 | 0 | 4.8 | 9.7 | 0.00 | 0.00 | 0.00 | 83 | 1022.7 |
| 20260903140054 | 14 | 0 | 4.8 | 6.4 | 0.00 | 0.00 | 0.00 | 83 | 1022.6 |
| 20260903135545 | 14 | 0 | 4.8 | 9.7 | 0.00 | 0.00 | 0.00 | 83 | 1022.6 |
| 20260903135036 | 14 | 0 | 4.8 | 9.7 | 0.00 | 0.00 | 0.00 | 83 | 1022.6 |
| 20260903134527 | 14 | 0 | 3.2 | 6.4 | 0.00 | 0.00 | 0.00 | 83 | 1022.6 |
| 20260903134018 | 14 | 0 | 4.8 | 8.0 | 0.00 | 0.00 | 0.00 | 83 | 1022.8 |
| 20260903133509 | 13 | 0 | 3.2 | 8.0 | 0.00 | 0.00 | 0.00 | 83 | 1022.8 |
| 20260903133000 | 14 | 0 | 4.8 | 9.7 | 0.00 | 0.00 | 0.00 | 83 | 1022.6 |
| 20260903131942 | 14 | 0 | 4.8 | 8.0 | 0.00 | 0.00 | 0.00 | 83 | 1022.4 |
| 20260903131433 | 14 | 0 | 4.8 | 6.4 | 0.00 | 0.00 | 0.00 | 84 | 1022.6 |
| 20260903130924 | 14 | 0 | 4.8 | 8.0 | 0.00 | 0.00 | 0.00 | 84 | 1022.4 |
| 20260903130415 | 13 | 0 | 4.8 | 8.0 | 0.00 | 0.00 | 0.00 | 85 | 1022.5 |
| 20260903125906 | 13 | 0 | 4.8 | 8.0 | 0.00 | 0.00 | 0.00 | 85 | 1022.7 |
| 20260903125357 | 13 | 0 | 3.2 | 6.4 | 0.00 | 0.00 | 0.00 | 85 | 1022.7 |
| 20260903124848 | 13 | 0 | 4.8 | 8.0 | 0.00 | 0.00 | 0.00 | 84 | 1022.6 |
| 20260903124339 | 13 | 0 | 4.8 | 6.4 | 0.00 | 0.00 | 0.00 | 84 | 1022.5 |
| 20260903123830 | 13 | 0 | 4.8 | 8.0 | 0.00 | 0.00 | 0.00 | 84 | 1022.5 |
| 20260903123322 | 13 | 0 | 4.8 | 11.3 | 0.00 | 0.00 | 0.00 | 84 | 1022.5 |
| 20260903122813 | 13 | 0 | 3.2 | 8.0 | 0.00 | 0.00 | 0.00 | 85 | 1022.7 |
| 20260903122305 | 13 | 0 | 4.8 | 8.0 | 0.00 | 0.00 | 0.00 | 85 | 1022.7 |
| 20260903121755 | 13 | 0 | 3.2 | 6.4 | 0.00 | 0.00 | 0.00 | 85 | 1022.8 |
| 20260903121246 | 13 | 0 | 4.8 | 6.4 | 0.00 | 0.00 | 0.00 | 85 | 1022.9 |
| 20260903120737 | 13 | 0 | 4.8 | 9.7 | 0.00 | 0.00 | 0.00 | 85 | 1022.8 |
| 20260903115719 | 13 | 0 | 3.2 | 6.4 | 0.00 | 0.00 | 0.00 | 85 | 1022.8 |
| 20260903115210 | 13 | 0 | 3.2 | 6.4 | 0.00 | 0.00 | 0.00 | 85 | 1022.8 |
| 20260903114701 | 13 | 0 | 3.2 | 6.4 | 0.00 | 0.00 | 0.00 | 85 | 1023.0 |
| 20260903114152 | 13 | 0 | 3.2 | 8.0 | 0.00 | 0.00 | 0.00 | 84 | 1023.1 |
| 20260903113643 | 13 | 0 | 4.8 | 8.0 | 0.00 | 0.00 | 0.00 | 84 | 1023.1 |
| 20260903112625 | 13 | 0 | 3.2 | 6.4 | 0.00 | 0.00 | 0.00 | 85 | 1023.2 |
| 20260903111608 | 13 | 0 | 4.8 | 6.4 | 0.00 | 0.00 | 0.00 | 85 | 1023.1 |
| 20260903110550 | 13 | 0 | 4.8 | 6.4 | 0.00 | 0.00 | 0.00 | 85 | 1023.2 |
| 20260903110041 | 13 | 0 | 4.8 | 8.0 | 0.00 | 0.00 | 0.00 | 85 | 1023.3 |
| 20260903105532 | 13 | 0 | 3.2 | 4.8 | 0.00 | 0.00 | 0.00 | 86 | 1023.2 |
| 20260903105023 | 13 | 0 | 3.2 | 6.4 | 0.00 | 0.00 | 0.00 | 86 | 1023.3 |
| 20260903104514 | 13 | 0 | 4.8 | 8.0 | 0.00 | 0.00 | 0.00 | 86 | 1023.4 |